Temperature
18 18 18 18 18 18 18 18 18 18 18 18 18 18 18 18 18 18 18 18 17 17 17 17 17 17 17 17 17 17 17 17 16 16 16 16 16 16 16 16 16 16 16
18 18 18 18 18 18 18 18 18 18 18 18 18 18 18 18 18 18 18 18 17 17 17 17 17 17 17 17 17 17 17 17 17 16 16 16 16 16 16 16 16 16 16
18 18 18 18 18 18 18 18 18 18 18 18 18 18 18 18 18 18 18 18 17 17 17 17 17 17 17 17 17 17 17 16 16 16 16 16 16 16 16 16 16 16 15
18 18 18 18 18 18 18 18 18 18 18 18 18 18 18 18 18 18 18 18 17 17 17 17 17 17 17 17 17 17 16 16 16 16 16 16 16 16 16 16 16 16 15
18 18 18 18 18 18 18 18 18 18 18 18 18 18 18 18 18 18 18 18 18 17 17 17 17 17 17 17 17 17 16 16 16 16 16 16 16 16 16 16 16 16 15
18 18 18 18 18 18 18 18 18 18 18 18 18 18 18 18 18 18 18 18 18 17 17 17 17 17 17 17 16 16 16 16 16 16 16 16 16 16 16 16 16 16 15
18 18 18 18 18 18 18 18 18 18 18 18 18 18 18 18 18 18 18 18 18 17 17 17 17 17 17 17 17 16 16 16 16 16 16 16 16 16 16 16 16 15 15
18 18 18 18 18 18 18 18 18 18 18 18 18 18 18 18 18 18 18 18 18 18 18 17 17 17 17 17 17 17 16 16 16 16 16 16 16 16 16 16 16 15 15
18 18 18 18 18 18 18 18 18 18 18 18 18 18 18 18 18 18 18 18 18 18 18 18 18 17 17 17 17 17 17 16 16 16 16 16 16 16 16 16 15 15 15
19 18 18 18 18 18 18 18 18 18 18 18 18 18 18 18 17 18 18 18 18 18 18 18 18 17 17 17 17 17 17 16 16 16 16 16 16 16 16 16 15 15 15
19 18 18 18 18 18 18 18 18 18 18 18 18 18 18 18 17 17 17 18 18 18 18 18 17 17 17 17 17 17 16 16 16 16 16 16 16 16 16 16 16 15 15
19 19 18 18 19 19 18 18 18 18 18 18 18 18 18 17 17 17 17 17 17 18 18 18 17 17 17 17 17 17 16 16 16 16 16 16 16 16 16 16 15 15 15
19 19 19 19 19 19 18 18 18 18 18 18 18 18 18 18 17 17 17 17 17 17 18 18 18 17 17 17 17 17 16 16 16 16 16 16 16 16 16 16 15 15 15
19 19 19 19 19 19 18 18 18 18 18 18 18 18 18 18 18 17 17 17 17 17 17 18 18 17 17 17 17 16 16 16 16 16 16 16 16 16 15 15 15 15 15
19 19 19 19 18 18 18 18 18 18 18 18 18 18 18 18 18 17 17 17 17 16 17 17 17 17 17 17 16 16 16 16 16 16 16 16 16 15 15 15 15 15 15
19 19 19 19 18 18 18 18 18 18 18 18 18 18 18 18 18 17 17 17 17 16 16 16 16 16 16 16 16 16 16 16 15 15 15 15 15 15 15 15 15 15 15
19 19 19 19 19 18 18 18 18 18 18 18 18 18 18 18 17 17 17 17 17 16 16 16 16 16 16 16 16 16 16 15 15 15 15 15 15 15 15 15 15 15 14
19 19 19 19 19 18 18 18 18 18 18 18 18 18 17 17 17 17 17 17 17 16 16 16 16 16 16 16 16 15 15 15 15 15 15 15 15 15 15 15 14 14 14
19 19 18 18 18 18 18 18 18 18 18 18 18 17 17 17 17 17 17 17 16 16 16 16 16 16 16 15 15 15 15 15 15 15 15 15 14 14 14 14 14 14 14
19 18 18 18 18 18 18 18 18 17 17 17 17 17 17 17 17 17 17 17 16 16 16 16 15 15 15 15 15 15 15 15 15 14 14 14 14 14 14 14 14 14 14
18 18 18 18 18 18 18 17 17 17 17 17 17 17 17 17 17 16 16 16 16 16 16 15 15 15 15 15 14 14 14 15 14 14 14 14 14 14 14 14 14 14 14
18 18 18 18 18 18 18 17 17 17 17 17 17 17 17 16 16 16 16 16 16 15 15 15 15 14 14 14 14 14 14 14 14 14 14 14 13 14 14 13 13 13 13
18 18 18 18 18 17 17 17 17 17 17 17 16 16 16 16 16 16 16 16 15 15 15 15 15 14 14 14 14 14 14 13 13 13 13 13 13 13 13 13 13 13 13
18 18 18 17 17 17 17 17 17 16 16 16 16 16 16 16 16 16 16 15 15 15 15 15 14 14 14 14 14 14 13 13 13 13 13 13 13 13 13 13 13 13 13
18 18 17 17 17 17 17 16 16 16 16 16 16 16 16 16 16 15 15 15 15 15 14 14 14 14 14 14 13 13 13 13 13 13 13 12 12 12 13 13 12 12 12
18 17 17 17 17 17 16 16 16 16 16 16 16 15 15 15 15 15 14 14 14 14 14 14 14 14 14 13 13 13 13 13 12 12 12 12 12 12 11 12 12 12 12
Wind_Speed
2 2 2 2 2 2 2 2 2 3 2 2 3 3 3 3 3 3 3 5 6 6 6 6 6 6 6 6 6 6 7 7 7 7 7 7 8 8 9 10 11 11 10
2 2 2 2 1 1 2 2 2 2 2 2 2 2 2 3 3 3 4 4 5 6 7 7 7 7 7 7 7 7 8 8 8 8 8 8 8 8 9 10 11 11 11
3 2 2 1 1 2 3 3 3 3 2 2 2 1 1 2 3 4 4 4 4 6 7 7 7 7 8 8 8 8 8 9 9 9 9 9 9 9 9 9 9 11 11
4 3 2 1 2 3 3 2 2 2 2 1 1 0 0 1 2 3 4 4 5 5 6 7 8 8 8 8 8 9 9 8 9 9 9 9 9 9 9 9 10 10 11
5 4 2 2 3 3 2 2 2 2 2 1 1 0 1 1 2 3 3 4 5 5 5 6 8 9 9 10 10 9 9 9 9 9 10 11 11 11 10 10 11 11 11
5 4 3 3 3 3 2 2 2 2 2 1 1 1 1 2 2 3 3 3 4 6 6 6 6 7 10 11 11 10 10 10 9 10 11 11 11 12 12 11 11 11 12
5 4 3 3 3 3 3 3 3 3 2 2 2 1 2 1 2 2 2 3 4 5 6 7 7 7 8 9 10 11 11 10 10 10 11 12 12 12 12 12 12 12 12
5 4 4 3 3 3 3 3 3 2 1 1 2 1 2 3 2 1 1 3 3 3 5 6 7 7 8 7 8 10 10 10 10 10 10 10 11 11 11 12 12 13 13
3 3 4 3 3 3 3 3 4 3 2 1 1 2 1 1 2 2 1 2 2 2 3 4 5 6 7 7 7 8 9 9 9 9 9 8 9 10 10 10 11 11 11
2 3 4 4 4 3 3 3 4 3 3 2 1 1 1 2 1 2 2 1 2 2 3 3 4 5 6 6 7 8 8 8 8 9 8 8 8 8 9 9 10 10 10
1 2 3 3 4 3 4 3 3 4 3 3 2 2 1 1 1 1 3 3 2 2 2 3 3 4 5 6 6 7 8 8 8 7 8 7 8 7 7 8 9 9 9
0 1 2 2 3 3 3 4 4 4 4 4 3 2 2 2 2 2 3 3 3 3 2 2 3 3 4 5 7 7 8 8 7 7 7 7 7 7 7 7 8 9 9
1 1 2 2 2 3 3 3 3 4 4 4 4 3 3 3 2 2 2 2 2 2 2 2 3 3 4 4 5 7 6 6 6 6 6 6 6 6 6 6 7 8 8
3 2 2 2 2 2 3 3 3 3 3 4 4 3 2 3 3 3 2 2 2 2 2 3 1 2 3 3 4 5 4 4 5 5 5 6 6 6 6 5 5 6 6
3 3 3 2 2 2 3 3 2 3 3 3 3 3 3 2 3 3 3 3 2 3 3 3 2 2 2 2 3 3 3 4 4 5 5 5 5 5 6 6 5 5 6
3 3 3 3 2 2 3 3 2 2 2 2 2 2 2 2 2 2 3 3 3 3 3 2 3 2 2 1 2 3 3 4 4 4 4 5 5 5 6 6 6 6 6
4 4 4 4 3 3 2 3 3 3 2 2 2 2 2 2 2 2 2 2 3 3 4 4 2 2 2 2 2 2 3 3 3 4 5 5 4 4 4 5 5 6 6
4 4 4 4 4 3 3 3 4 3 3 3 2 2 2 2 2 2 2 2 3 3 3 4 2 1 2 2 2 2 2 3 4 5 5 5 5 4 4 5 5 6 7
3 3 3 4 4 3 3 3 3 3 3 3 3 3 3 2 2 2 2 2 2 2 3 3 3 1 1 1 2 2 2 2 3 4 4 5 5 5 5 5 6 6 7
3 4 4 4 3 3 3 4 3 3 3 3 3 3 3 3 4 3 3 2 2 2 2 3 3 2 2 1 1 2 2 2 2 3 3 3 4 4 5 6 6 6 7
4 4 3 3 3 3 3 3 4 4 4 3 3 3 3 4 4 4 3 3 2 2 2 2 3 2 2 1 2 2 2 3 3 2 2 2 2 2 3 4 5 6 7
3 3 4 4 3 3 3 4 4 3 3 3 3 3 3 3 3 4 4 4 4 4 4 3 3 4 4 4 3 3 2 2 3 2 2 3 2 3 3 3 4 6 7
4 4 4 4 3 3 4 4 4 3 3 3 3 3 3 2 2 2 2 2 3 4 5 5 5 6 5 5 4 4 4 4 4 2 2 3 2 4 4 5 6 7 7
4 4 4 4 3 3 4 4 4 2 2 2 3 3 3 2 2 2 1 1 2 3 3 4 5 6 6 5 5 5 5 4 3 2 3 3 3 4 4 5 7 8 8
4 4 3 4 4 3 4 4 4 2 1 2 3 2 2 3 3 2 1 1 2 3 3 2 3 4 4 5 4 2 2 2 3 2 2 2 2 3 3 4 5 6 7
4 3 3 3 4 3 4 4 3 2 1 2 2 2 1 2 2 2 2 2 3 4 3 3 3 4 3 3 2 3 4 3 3 2 2 2 2 1 2 2 3 3 5
Wind_Direction
107 100 102 89 75 86 92 102 104 106 108 114 136 144 154 165 172 176 185 192 198 200 198 197 201 203 205 206 208 215 221 223 221 218 217 220 219 219 220 220 217 213 212
138 119 105 100 97 112 123 122 128 122 118 120 123 137 156 173 177 187 202 209 209 211 216 216 213 214 215 219 221 225 232 232 229 226 223 223 223 226 229 227 223 219 217
153 145 119 106 111 106 102 99 95 102 112 108 108 136 164 186 194 201 208 212 219 223 225 223 221 222 222 226 228 230 236 235 232 228 224 225 226 229 230 230 228 222 219
167 157 143 148 129 111 106 107 101 103 100 99 106 147 191 215 222 215 211 215 220 229 234 232 231 232 234 240 241 242 242 238 232 228 226 228 228 229 231 235 231 225 220
179 165 162 154 134 120 115 127 115 123 123 101 89 4 267 242 243 228 220 220 223 226 232 242 245 243 242 245 247 247 249 247 240 238 238 236 234 233 234 235 231 227 223
185 165 161 150 137 127 122 122 130 121 136 144 112 26 311 267 245 237 237 232 229 229 230 235 245 252 251 251 252 249 251 251 246 247 246 243 241 238 235 233 231 229 227
184 173 167 155 149 152 155 143 131 123 117 112 91 15 337 290 249 241 235 234 240 238 233 233 237 243 254 257 253 250 253 253 250 252 250 247 244 242 237 234 232 230 230
188 182 170 170 164 154 147 146 136 130 122 119 123 87 351 340 336 274 243 233 244 241 240 238 230 235 243 249 252 251 252 255 257 256 254 250 247 246 242 239 233 231 230
196 188 177 170 172 167 175 177 166 158 170 166 151 148 151 264 311 317 279 258 256 248 248 244 235 232 235 241 250 255 257 258 259 259 258 252 248 246 243 238 231 229 227
184 188 183 178 181 179 183 190 183 175 169 184 180 185 185 172 197 314 319 308 285 261 260 255 241 236 237 241 244 245 251 257 260 260 263 259 252 248 244 238 231 228 226
179 182 178 177 180 184 190 190 181 181 180 182 182 173 153 138 184 214 289 314 317 282 270 258 251 246 243 243 246 246 250 254 260 262 260 259 259 256 251 241 236 234 233
188 184 178 178 184 188 197 200 195 189 191 189 186 180 173 176 197 202 243 279 296 294 287 263 253 252 249 246 247 248 249 254 258 262 265 263 263 261 256 251 244 241 237
209 232 203 192 197 199 198 194 188 194 193 191 194 199 199 207 191 190 212 257 279 292 298 281 252 248 251 248 253 251 247 249 254 259 262 263 261 256 254 254 249 244 237
216 217 200 195 200 194 194 179 185 201 194 200 208 201 206 221 202 198 199 206 277 293 288 284 290 256 256 250 256 246 245 247 256 263 265 260 258 252 250 251 241 236 227
211 205 197 200 208 198 187 172 182 201 195 204 212 207 215 229 212 211 204 197 210 267 285 279 289 303 272 252 253 237 242 256 254 258 263 263 257 250 248 243 236 229 221
203 188 193 200 202 199 189 173 189 210 198 215 213 206 221 234 228 216 210 212 211 223 262 275 267 288 287 274 248 237 247 257 264 270 270 271 260 249 243 243 240 235 230
200 197 194 192 192 194 193 182 199 206 208 228 226 211 237 235 236 240 220 212 214 209 248 280 274 290 270 276 283 265 252 260 270 268 270 267 259 249 235 235 239 238 233
205 199 186 187 195 198 196 191 206 214 210 225 228 216 246 244 236 245 231 228 224 215 229 267 286 287 266 267 279 275 274 268 264 266 260 255 255 250 245 240 238 236 235
195 193 184 193 203 201 198 200 207 221 223 225 224 222 241 237 256 261 249 244 243 235 225 242 268 273 282 282 293 287 283 284 280 272 256 256 249 246 246 245 241 237 234
193 203 197 195 200 202 206 204 200 208 219 230 232 229 234 231 238 246 251 247 245 249 241 243 262 274 268 267 254 274 292 290 284 285 272 270 258 249 250 246 243 238 234
204 202 196 196 200 202 214 202 199 205 211 224 239 241 239 237 236 238 242 237 231 245 252 256 268 274 269 262 261 255 269 287 281 262 271 272 264 261 262 252 247 242 235
195 193 198 195 201 220 215 203 196 202 210 219 238 256 260 256 250 245 238 233 223 232 240 245 257 259 260 254 252 243 250 280 284 257 243 265 243 257 259 249 250 241 238
188 196 202 195 201 216 207 201 193 192 208 226 236 247 260 270 255 265 266 267 262 245 228 232 247 254 257 250 241 244 239 243 254 253 227 259 248 257 261 255 249 244 239
192 196 198 199 200 216 200 192 182 174 192 225 236 232 236 257 259 238 249 298 294 284 258 241 246 259 260 254 232 235 240 248 257 242 211 246 256 263 274 261 248 243 239
194 196 195 191 189 205 193 183 169 167 192 231 239 233 229 245 253 214 196 258 295 302 305 290 272 277 280 274 241 227 231 242 268 263 209 228 261 272 268 262 258 248 242
188 179 178 188 188 195 186 171 163 165 207 246 268 272 244 230 241 213 209 228 267 286 310 325 326 326 321 318 264 223 227 236 253 259 210 210 242 262 272 261 268 268 258
Height
1531 1532 1534 1535 1537 1538 1540 1541 1543 1544 1545 1547 1548 1548 1549 1550 1551 1552 1553 1553 1554 1554 1554 1555 1555 1556 1557 1557 1557 1558 1558 1559 1560 1560 1561 1561 1562 1562 1563 1564 1564 1565 1566
1534 1535 1536 1537 1538 1540 1541 1542 1544 1545 1546 1547 1548 1549 1549 1550 1551 1552 1552 1553 1553 1554 1554 1555 1555 1555 1556 1556 1557 1557 1557 1558 1558 1559 1559 1560 1560 1560 1561 1562 1562 1563 1564
1536 1537 1537 1538 1539 1541 1542 1543 1545 1546 1547 1547 1548 1549 1550 1550 1551 1552 1552 1553 1553 1553 1554 1554 1554 1554 1555 1555 1555 1555 1556 1556 1556 1557 1557 1557 1558 1558 1559 1559 1560 1561 1561
1537 1538 1538 1539 1540 1542 1543 1544 1545 1546 1547 1548 1548 1549 1550 1550 1551 1551 1552 1552 1552 1553 1553 1553 1553 1553 1553 1553 1553 1554 1554 1554 1554 1555 1555 1555 1555 1556 1556 1557 1557 1558 1559
1537 1538 1539 1540 1541 1542 1543 1544 1545 1546 1547 1548 1549 1549 1550 1550 1550 1551 1551 1551 1551 1552 1552 1552 1552 1552 1552 1552 1552 1552 1552 1552 1552 1552 1552 1552 1553 1553 1553 1554 1554 1555 1556
1538 1539 1539 1540 1541 1542 1543 1544 1545 1546 1547 1548 1548 1549 1549 1549 1550 1550 1550 1550 1550 1550 1550 1550 1550 1550 1550 1550 1550 1550 1550 1550 1550 1550 1550 1550 1550 1550 1550 1551 1552 1552 1553
1537 1538 1539 1540 1541 1542 1543 1544 1545 1546 1547 1547 1548 1548 1548 1549 1549 1549 1549 1549 1549 1549 1549 1549 1548 1548 1549 1549 1548 1548 1548 1548 1547 1547 1547 1547 1547 1547 1547 1548 1549 1549 1550
1537 1538 1539 1540 1541 1542 1543 1544 1545 1545 1546 1547 1548 1548 1548 1549 1548 1548 1548 1548 1548 1548 1548 1547 1547 1547 1547 1547 1546 1546 1546 1545 1545 1544 1544 1544 1544 1544 1544 1545 1545 1546 1546
1537 1537 1538 1540 1541 1542 1543 1544 1544 1545 1546 1547 1547 1548 1548 1547 1547 1547 1547 1547 1547 1546 1546 1546 1545 1545 1545 1545 1545 1544 1543 1543 1543 1542 1542 1542 1541 1541 1541 1541 1541 1542 1543
1536 1537 1538 1539 1540 1541 1542 1543 1544 1544 1545 1545 1546 1547 1547 1547 1547 1546 1546 1546 1545 1545 1544 1544 1544 1543 1543 1543 1542 1542 1541 1541 1540 1540 1539 1539 1538 1538 1538 1538 1538 1538 1540
1536 1536 1537 1538 1539 1540 1541 1542 1543 1543 1544 1544 1545 1545 1546 1546 1546 1545 1544 1544 1543 1543 1543 1542 1542 1541 1541 1541 1540 1540 1539 1538 1538 1537 1537 1536 1536 1535 1535 1535 1535 1536 1537
1535 1536 1536 1537 1538 1539 1540 1541 1541 1542 1542 1543 1544 1544 1544 1544 1544 1544 1543 1542 1541 1541 1540 1540 1539 1539 1539 1538 1538 1537 1536 1536 1535 1535 1534 1534 1533 1533 1532 1532 1532 1533 1533
1534 1534 1535 1536 1537 1537 1539 1539 1540 1540 1541 1541 1542 1542 1542 1542 1542 1542 1541 1540 1539 1538 1538 1538 1537 1537 1536 1536 1535 1534 1534 1533 1533 1532 1532 1531 1530 1530 1529 1529 1529 1530 1530
1532 1533 1534 1535 1535 1536 1537 1538 1538 1539 1539 1540 1540 1540 1540 1540 1540 1540 1539 1538 1537 1536 1535 1535 1535 1534 1534 1533 1533 1532 1531 1531 1530 1530 1529 1528 1528 1527 1527 1526 1526 1527 1527
1530 1531 1532 1533 1534 1535 1535 1536 1537 1537 1537 1537 1538 1538 1538 1538 1537 1537 1537 1536 1536 1534 1533 1532 1532 1532 1531 1531 1530 1529 1529 1528 1528 1527 1526 1525 1525 1524 1524 1524 1524 1524 1524
1528 1529 1530 1531 1532 1533 1533 1534 1534 1535 1535 1535 1535 1535 1535 1535 1535 1535 1534 1533 1533 1533 1531 1530 1530 1529 1529 1528 1527 1527 1526 1526 1525 1524 1523 1523 1522 1522 1521 1521 1521 1521 1521
1526 1526 1527 1528 1529 1530 1531 1532 1532 1533 1533 1533 1533 1533 1533 1533 1532 1532 1531 1531 1530 1530 1528 1527 1527 1527 1526 1525 1524 1524 1523 1523 1522 1521 1521 1520 1519 1519 1519 1518 1518 1518 1518
1523 1524 1524 1525 1526 1527 1528 1529 1529 1530 1530 1530 1530 1530 1530 1530 1529 1529 1529 1528 1527 1527 1526 1524 1524 1523 1523 1522 1521 1520 1520 1519 1519 1518 1518 1517 1516 1516 1515 1515 1515 1514 1514
1520 1521 1522 1522 1523 1524 1525 1526 1526 1527 1527 1527 1527 1527 1527 1527 1526 1526 1525 1525 1524 1524 1523 1522 1520 1520 1519 1519 1518 1517 1517 1516 1516 1515 1514 1514 1513 1512 1512 1512 1511 1511 1511
1518 1519 1519 1520 1520 1521 1522 1523 1523 1524 1524 1524 1524 1524 1524 1523 1523 1523 1522 1522 1521 1520 1520 1519 1517 1516 1516 1515 1515 1514 1513 1513 1512 1512 1511 1510 1510 1509 1509 1508 1508 1507 1507
1515 1517 1517 1517 1518 1519 1519 1520 1521 1521 1521 1521 1521 1521 1520 1520 1519 1519 1519 1518 1518 1517 1516 1515 1514 1513 1512 1511 1511 1510 1509 1509 1508 1508 1507 1507 1506 1506 1505 1504 1504 1504 1503
1512 1513 1514 1514 1515 1516 1516 1517 1518 1518 1517 1517 1517 1517 1517 1516 1516 1516 1515 1515 1514 1513 1512 1511 1510 1509 1508 1508 1507 1507 1506 1505 1504 1504 1503 1502 1502 1501 1501 1501 1500 1500 1499
1509 1510 1511 1511 1512 1512 1513 1514 1514 1514 1514 1514 1514 1513 1513 1513 1513 1512 1511 1511 1510 1510 1509 1508 1506 1505 1504 1504 1503 1503 1502 1501 1500 1500 1499 1498 1498 1497 1497 1496 1496 1496 1495
1505 1506 1507 1508 1508 1509 1509 1510 1510 1510 1510 1510 1510 1509 1509 1509 1509 1508 1507 1506 1506 1505 1504 1504 1503 1502 1501 1500 1500 1499 1498 1497 1496 1496 1495 1493 1493 1492 1492 1492 1492 1492 1491
1501 1502 1503 1504 1504 1505 1506 1506 1506 1506 1506 1506 1505 1505 1505 1505 1504 1504 1503 1502 1501 1501 1501 1500 1499 1498 1497 1497 1496 1495 1494 1493 1491 1491 1491 1490 1488 1488 1488 1487 1487 1487 1487
1497 1498 1499 1500 1501 1501 1502 1502 1503 1502 1502 1502 1501 1501 1501 1501 1500 1500 1499 1498 1497 1497 1496 1496 1495 1494 1493 1492 1491 1491 1490 1489 1488 1487 1486 1486 1485 1484 1483 1483 1483 1483 1483